User: anonymous   Login
Location: Unspecified
(0.0000°N, 0.0000°E)
Time: 01:45:10
(UTC+00:00)
Language:

MUOS 2 - Orbit

View from above orbital plane
View from above orbital plane
View from above satellite
View from above satellite

Ground track
Ground track

The orbit data is extracted from the following two-line orbital elements,

1 39206U 13036A   17090.67934660 0.00000000  00000-0  00000-0 0    04
2 39206   3.7229 333.7598 0055333   1.9632 358.0145  1.00270000    09
Epoch (UTC): 31 March 2017 16:18:15
Eccentricity: 0.0055333
inclination: 3.7229°
perigee height: 35553 km
apogee height: 36020 km
right ascension of ascending node: 333.7598°
argument of perigee: 1.9632°
revolutions per day: 1.00270000
mean anomaly at epoch: 358.0145°
orbit number at epoch: 0

The dashed part of the orbit path shows where the satellite is in the earth's shadow,  

DLR